Simultaneous Nadir Overpasses (SNOs) Predictions

Prediction of SNOs between NOAA-19 and METOP-C Satellite Orbit:

Table of predicted SNOs for the next 14.0 days since TLE Epoch: 4/2/2022
Index Date (NOAA-19) Time (NOAA-19) Lat,Lon (NOAA-19) SZA (NOAA-19 ) Date (METOP-C) Time (METOP-C) Lat,Lon (METOP-C) SZA (METOP-C ) Distance(km) Time Diff (sec)
1 04/03/2022 04:16:05 -80.80, -31.56 103.15 04/03/2022 04:17:16 -80.79, -31.69 103.14 2.32 71
2 04/03/2022 05:07:01 80.80, 135.73 76.85 04/03/2022 05:07:57 80.79, 135.60 76.85 2.34 56
3 04/03/2022 05:58:05 -80.80, -57.04 103.17 04/03/2022 05:58:38 -80.79, -57.18 103.18 2.65 33
4 04/03/2022 06:49:01 80.80, 110.24 76.82 04/03/2022 06:49:19 80.78, 110.11 76.81 2.68 18
5 04/03/2022 07:40:04 -80.79, -82.16 103.17 04/03/2022 07:39:59 -80.80, -82.31 103.18 2.95 5
6 04/03/2022 08:31:00 80.79, 85.12 76.82 04/03/2022 08:30:40 80.79, 84.98 76.81 2.71 20
7 04/03/2022 09:22:04 -80.79,-107.64 103.20 04/03/2022 09:21:21 -80.79,-107.80 103.23 2.82 43
8 04/03/2022 10:13:00 80.79, 59.63 76.79 04/03/2022 10:12:02 80.79, 59.49 76.76 2.55 58
9 04/14/2022 08:52:06 -80.81,-100.61 107.23 04/14/2022 08:53:21 -80.79,-100.74 107.22 2.75 75
10 04/14/2022 09:43:00 80.80, 66.88 72.78 04/14/2022 09:44:01 80.82, 67.00 72.82 2.58 61
11 04/14/2022 10:34:05 -80.80,-125.73 107.23 04/14/2022 10:34:42 -80.80,-125.88 107.22 2.73 37
12 04/14/2022 11:25:00 80.80, 41.39 72.76 04/14/2022 11:25:23 80.81, 41.50 72.78 2.13 23
13 04/14/2022 12:16:05 -80.80,-151.22 107.25 04/14/2022 12:16:04 -80.80,-151.37 107.27 2.68 1
14 04/14/2022 13:07:00 80.80, 15.90 72.73 04/14/2022 13:06:45 80.80, 16.01 72.73 2.05 15
15 04/14/2022 13:58:05 -80.80,-176.71 107.27 04/14/2022 13:57:26 -80.79,-176.86 107.31 2.95 39
16 04/14/2022 14:49:00 80.80, -9.60 72.71 04/14/2022 14:48:07 80.79, -9.48 72.69 2.40 53



Historial Predications of SNOs between NOAA-19 and METOP-C
